Location: Ponte Samoggia
(44.5667°N, 11.1333°E)
Time: 00:09:00
(UTC+00:00)

Cosmos 292 Rocket - Pass Details

Date: 26 May 2022
Orbit: 674 x 692 km, 74.0° (Epoch: 26 June)

Event Time Altitude Azimuth Distance (km) Brightness Sun altitude
Exits shadow 01:48:12 24° 200° (SSW) 1,403 4.8 -15.3°
Maximum altitude 01:51:07 90° 282° (WNW) 690 3.7 -15.0°
Drops below altitude 10° 01:55:55 10° 21° (NNE) 2,131 7.5 -14.5°
Sets 01:58:14 0° 21° (NNE) 3,048 8.6 -14.2°
